Regional Weather Roundup
Issued by NWS

Home | Current Version | Previous Version | Text Only | Print | Product List | Glossary On
Versions: 1 2 3 4 5 6 7 8 9 10 11 12 13 14 15 16 17 18 19 20 21 22 23 24 25 26 27 28 29 30 31 32 33 34 35 36 37 38 39 40 41 42 43 44 45 46 47 48 49 50
000
ASUS43 KMPX 222001
RWRMN
WEATHER ROUNDUP FOR MINNESOTA
NATIONAL WEATHER SERVICE TWIN CITIES/CHANHASSEN MN
300 PM CDT TUE JUL 22 2014


NOTE: "FAIR" INDICATES FEW OR NO CLOUDS BELOW 12,000 FEET WITH NO
SIGNIFICANT WEATHER AND/OR OBSTRUCTIONS TO VISIBILITY. N/A MEANS
CURRENT SKY AND/OR WEATHER CONDITIONS ARE NOT AVAILABLE.

MNZ060>063-068>070-222100-
   Twin Cities Metro

CITY           SKY/WX    TMP DP  RH WIND       PRES   REMARKS
TWIN CITIES    MOSUNNY   85  60  42 NW17G25   30.03R
ST PAUL        PTSUNNY   82  63  52 NW10G24   30.02R
CRYSTAL        MOSUNNY   84  61  45 NW10G18   30.02R
BLAINE         MOSUNNY   82  63  51 NW10      30.03R
LAKEVILLE      MOSUNNY   81  64  57 NW9       30.03R
EDEN PRAIRIE   MOSUNNY   82  64  54 N13G18    30.03R
SOUTH ST PAUL  MOSUNNY   83  61  47 N8G16     30.02R
LAKE ELMO      PTSUNNY   79  64  61 NW10G18   30.04R
$$
MNZ001>005-007-008-013>017-022>024-027-028-222100-
   Northwest Minnesota

CITY           SKY/WX    TMP DP  RH WIND       PRES   REMARKS
BEMIDJI        SUNNY     74  51  44 N17       30.12R
HALLOCK        SUNNY     75  55  50 N13       30.16R
ROSEAU         MOSUNNY   77  55  47 NW13G18   30.13R
WARROAD        MOSUNNY   75  54  46 NW14G24   30.12R
THIEF RVR FALL SUNNY     73  52  46 NW15      30.15R
CROOKSTON      SUNNY     75  55  50 N17G24    30.16R
FOSSTON        SUNNY     72  54  53 NW14G23   30.15R
DETROIT LAKES  SUNNY     73  54  49 N14G21    30.16R
MOORHEAD       SUNNY     75  63  64 N15       30.16R
PARK RAPIDS    SUNNY     77  50  38 N16G25    30.11R
$$
MNZ006-009>011-018-025>026-222100-
   North Central Minnesota

CITY           SKY/WX    TMP DP  RH WIND       PRES   REMARKS
BAUDETTE       SUNNY     75  52  44 NW15      30.12R
FLAG ISLAND    MOSUNNY   73  48  40 NW13      30.09R
INTL FALLS     PTSUNNY   74  53  48 NW16G23   30.06R
WASKISH        SUNNY     75  54  46 NW9G20    30.10R
LONGVILLE      SUNNY     73  55  53 NW7       30.09R
GRAND RAPIDS   MOSUNNY   75  54  46 N20G26    30.06R
CRANE LAKE     MOSUNNY   72  54  53 N9G20     30.06R
ORR            MOSUNNY   73  55  53 NW7       30.03R
COOK           MOSUNNY   73  55  53 NW9       30.05R
$$
MNZ012-019>021-037-222100-
   Northeast Minnesota

CITY           SKY/WX    TMP DP  RH WIND       PRES   REMARKS
DULUTH         MOSUNNY   79  57  46 NW18G25   30.02R
ELY            MOSUNNY   72  57  60 NW13      30.02R
HIBBING        MOSUNNY   77  57  50 NW22G28   30.04R
DULUTH HARBOR  MOSUNNY   77  59  53 NW16      29.99R
TWO HARBORS    MOSUNNY   75  59  57 N10G18    29.98R
SILVER BAY     SUNNY     75  63  64 NW7       29.97R
GRAND MARAIS     N/A     73  61  65 NW8       29.94R
G MARAIS ARPRT PTSUNNY   64  55  72 NW13G20   29.98R
$$
MNZ029>031-032-039>041-046>048-054>057-064-222100-
   West Central Minnesota

CITY           SKY/WX    TMP DP  RH WIND       PRES   REMARKS
FERGUS FALLS   PTSUNNY   75  52  43 N13G20    30.12R
WHEATON        PTSUNNY   73  57  56 NW15G22   30.16R
MORRIS         MOSUNNY   79  57  47 N17       30.13R
ALEXANDRIA     PTSUNNY   75  57  53 NW17G23   30.13R
ELBOW LAKE     FAIR      73  58  57 N14G22    30.13R
WADENA         MOSUNNY   75  52  43 N14G26    30.10S
GLENWOOD       MOSUNNY   79  55  44 NW16      30.13R
APPLETON       MOSUNNY   82  50  32 N15       30.12R
BENSON         MOSUNNY   77  54  44 NE14G25   30.11S
ORTONVILLE       N/A    N/A N/A N/A MISG        N/A
MADISON        MOSUNNY   81  59  47 N14G23    30.13R
WILLMAR        FAIR      82  52  34 N16G22    30.11R
$$
MNZ033>034-036-042>043-049>051-058-059-222100-
   Central Minnesota

CITY           SKY/WX    TMP DP  RH WIND       PRES   REMARKS
ST CLOUD       SUNNY     84  56  38 N12G21    30.06R
SAUK CENTRE    FAIR      77  54  44 NW17G23   30.11R
PAYNESVILLE    HVY RAIN  79  52  38 W10G18    30.09S
AITKIN         MOSUNNY   79  55  44 NW12G18   30.05R
PINE RIVER     SUNNY     77  55  47 N14       30.11R
BRAINERD       SUNNY     78  53  41 NW17      30.07R
STAPLES        MOSUNNY   77  52  41 N12G22    30.09R
LONG PRAIRIE   FAIR      73  55  53 NW9G17    30.11R
LITTLE FALLS   MOSUNNY   77  50  38 NW13G18   30.08R
LITCHFIELD     SUNNY     81  55  41 N15G23    30.08R
BUFFALO        SUNNY     81  58  44 NW10G21   30.06R
MAPLE LAKE     MOSUNNY   83  62  49 N12       30.07R
$$
MNZ037-044-045-052-053-222100-
   East Central Minnesota

CITY           SKY/WX    TMP DP  RH WIND       PRES   REMARKS
PRINCETON      SUNNY     81  59  47 NW13      30.05R
MORA           MOSUNNY   77  59  53 NW13      30.05R
CAMBRIDGE      MOSUNNY   82  63  51 NW14      30.03R
RUSH CITY      MOSUNNY   78  62  57 NW7G17    30.03R
MOOSE LAKE     MOSUNNY   79  59  50 N9G17     30.01R
HINCKLEY       FAIR      79  63  57 N13       30.02R
CLOQUET        MOSUNNY   79  55  44 NW17G24   30.03R
MCGREGOR       SUNNY     79  57  47 NW15G21   30.05R
$$
MNZ071>073-080-081-089-090-097-098-222100-
   Southwest Minnesota

CITY           SKY/WX    TMP DP  RH WIND       PRES   REMARKS
MONTEVIDEO     MOSUNNY   81  59  47 N12G21    30.12R
GRANITE FALLS  SUNNY     81  59  47 N13G20    30.12R
CANBY          MOSUNNY   80  57  44 N10G20    30.15R
MARSHALL       MOSUNNY   79  57  47 N15G24    30.12R
REDWOOD FALLS  SUNNY     83  58  42 N10G22    30.08S
OLIVIA         MOSUNNY   81  54  39 N15       30.08S
PIPESTONE      MOSUNNY   79  57  47 N8        30.16R
WINDOM         SUNNY     81  61  50 NW15      30.11R
WORTHINGTON    SUNNY     79  63  57 N16       30.16R
JACKSON        MOSUNNY   81  63  54 NW13G20   30.12R
TRACY          SUNNY     79  59  50 N15       30.13R
SLAYTON        SUNNY     79  57  47 CALM      30.16R
$$
MNZ065>067-074>077-082>085-091>093-222100-
   South Central Minnesota

CITY           SKY/WX    TMP DP  RH WIND       PRES   REMARKS
MANKATO        MOSUNNY   81  63  54 N10G18    30.05F
NEW ULM        SUNNY     82  63  51 NW15      30.06S
ST JAMES       MOSUNNY   81  63  54 N9G16     30.09R
FAIRMONT       MOSUNNY   81  63  54 N12G17    30.08R
GLENCOE        SUNNY     82  59  45 NW12G18   30.06R
FARIBAULT      MOSUNNY   82  59  44 CALM      30.05S
OWATONNA       MOSUNNY   82  64  54 NW14      30.05S
WASECA         MOSUNNY   79  61  53 NW9       30.07S
ALBERT LEA     MOSUNNY   82  66  57 NW8       30.05S
$$
MNZ078>079-086>088-094>096-222100-
   Southeast Minnesota

CITY           SKY/WX    TMP DP  RH WIND       PRES   REMARKS
ROCHESTER      MOSUNNY   82  68  62 N10       30.05R
RED WING       MOSUNNY   84  63  48 NW12G21   30.00R
STANTON        MOSUNNY   81  64  56 NW10      30.02S
DODGE CENTER   MOSUNNY   81  66  61 NW12      30.05S
WINONA         SUNNY     86  64  48 NW12G18   29.99R
AUSTIN         MOSUNNY   84  64  51 NW13      30.04S
PRESTON        MOSUNNY   81  74  77 NW10G17   30.04R
$$
ABBREVIATIONS USED IN REMARKS
   TC - TEMPERATURES IN CELSIUS
  WCI - WIND CHILL INDEX
   HX - HEAT INDEX
  VSB - VISIBILITY
$$



USA.gov is the U.S. government's official web portal to all federal, state and local government web resources and services.